[Date Prev][Date Next][Thread Prev][Thread Next] - [Date Index][Thread Index][Author Index]

2 Line ISS Keps 9-8



ISS
1 25544U 98067A   05250.94255067  .00018546  00000-0  13929-3 0  3108
2 25544 051.6431 197.2052 0001808 040.0137 031.9578 15.72641847388704
----
Via the sarex mailing list at AMSAT.ORG courtesy of AMSAT-NA.
To unsubscribe, send "unsubscribe sarex" to Majordomo@amsat.org



AMSAT Top AMSAT Home